Location: Earls Croome
(52.0667°N, 2.2000°W)
Time: 05:04:43
(UTC+00:00)

COSMOS 2406 - Pass Details

Date: 17 November 2019
Orbit: 843 x 864 km, 71.0° (Epoch: 09 December)

Event Time Altitude Azimuth Distance (km) Brightness Sun altitude
Exits shadow 04:22:27 37° 356° (N) 1,331 4.1 -28.7°
Drops below altitude 10° 04:26:15 10° 24° (NNE) 2,513 6.0 -28.2°
Sets 04:28:50 0° 30° (NNE) 3,451 6.8 -27.8°
